Погода в Вилюйске

Погода в Вилюйске : погода сейчас, прогноз погоды и архив. Всё, что Вы хотите узнать о погоде в Вилюйске!

Хотите узнать прогноз погоды в Вилюйске? Тогда Вам сюда: Погода в Вилюйске

Поиск расширенной информации на нашем сайте:

Другие новости

Новости СМИ2

Главная страница сайта

Новости сайта

03.07.2017

Напоминаем, что на нашем специализированном сайте Метеоцентр.Азия вы можете получить высокодетализированные автоматические прогнозы погоды по пунктам России, СНГ и мира в авиационном формате (включающие направление и скорость ветра, видимость, явления погоды, количество и форму облачности, нижнюю и верхнюю границу облачности).


Погода в Вилюйске - сегодня

Время (UTC), дата Ветер
(°,м/с) 
Видим.   Явления Облачность Т
(°С)
Тd
(°С)
f(%) Тe
(°С)
Pmin
(гПа)
dP
(гПа)
Po
(мм)
O2
(г/м3)
Тmin Tmax R s Состояние
почвы
09 20.04.18 240 (ЮЗ) 20000 м    8/5 600 м кучево-дожд., верхняя 
[Cb calv|Ci fib]
+0.5 -15.1 30 -2  1014.3  0.6  750  303           
12 20.04.18 240 (ЮЗ) 20000 м    8/1 600 м средняя, верхняя 
[Sc|Ac trans|Ci fib]
-2.9 -13.7 43 -2  1016.4  1.9  752  307    +2.2       
15 20.04.18 190 (Ю) 20000 м    4/0 верхняя 
[Ci fib]
-6 -14.5 51 -6  1017.2  0.6  752  311           
18 20.04.18 220 (ЮЗ) 20000 м    10/0 средняя, верхняя 
[Ac trans|Ci fib]
-7.7 -14.9 56 -9  1017.5  0.2  752  313           
21 20.04.18 220 (ЮЗ) 20000 м    10/0 верхняя 
[Ci fib]
-9.2 -14.8 64 -11  1017.8  0.2  752  315           
00 21.04.18 220 (ЮЗ) 20000 м    8/0 средняя 
[Ac trans]
-2.9 -13.1 45 -4  1017.7  0.2  753  308  -9.2      30  мокрый или
старый снег
50-90% 
03 21.04.18 250 (З) 20000 м    8/1 600 м средняя, верхняя 
[Cu hum|Ac trans|Ci fib]
+1.2 -11.7 38 -1  1017.5  753  303           
06 21.04.18 240 (ЮЗ) 20000 м    6/5 600 м верхняя 
[Sc|Ci fib]
+3.3 -9.4 39 +2  1017.4  753  301           
09 21.04.18 270 (З) 20000 м    9/8 600 м верхняя 
[Sc|Ci fib]
+2.3 -10.2 39 +1  1017.7  0.3  753  302           
12 21.04.18 180 (Ю) 20000 м    3/0 верхняя 
[Ci fib]
+0.2 -11.3 42 +1  1017.9  0.1  753  304    +3.7       
15 21.04.18 190 (Ю) 20000 м    ясно 
-2.2 -12.4 45 -3  1018  -0.1  753  307           
18 21.04.18 190 (Ю) 20000 м    6/0 средняя 
[Ac trans]
-2.2 -11.3 50 -3  1017.4  -0.5  752  307           
21 21.04.18 190 (Ю) 20000 м    10/0 средняя 
[As trans]
-2.7 -11.2 52 -2  1015.9  -1.5  751  307           
00 22.04.18 210 (ЮЗ) 20000 м    10/0 средняя, верхняя 
[As trans|Cs]
+1.4 -9.7 43 1015.2  -0.5  751  302  -2.7      25  мокрый или
старый снег
50-90% 
03 22.04.18 210 (ЮЗ) 20000 м    10/0 средняя, верхняя 
[Ac As|Cs]
+6.2 -8.1 35 +5  1012.6  -2.3  749  296           
06 22.04.18 210 (ЮЗ) 20000 м    9/0 средняя 
[Ac trans]
+7.9 -8.2 31 +7  1010.7  -1.8  748  294           
09 22.04.18 200 (Ю) 20000 м    10/0 средняя 
[Ac As]
+7.5 -5.7 39 +7  1009.9  -0.9  747  294           
12 22.04.18 190 (Ю) 20000 м    10/0 средняя 
[Ac As]
+5.7 -3.4 52 +5  1010.2  0.3  747  295    +8.2       
15 22.04.18 200 (Ю) 20000 м    10/0 средняя 
[As op]
+5.1 -1.1 64 +5  1010.3  747  296           
18 22.04.18 180 (Ю) 20000 м  {ливн. осадки}  10/8 600 м кучево-дожд., средняя 
[Cb calv|As op]
+3.9 +0.8 80 +3  1009.2  -1.1  747  296           
21 22.04.18 180 (Ю) 20000 м  в посл. час ливневой снег  10/6 600 м кучево-дожд., средняя 
[Cb calv|As op]
+3.6 +1 83 +3  1008.4  -0.8  746  297           
03 23.04.18 170 (Ю) 20000 м    10/0 верхняя 
[Ci fib]
+11.1 -0.9 43 +11  1003.5  -2.6  743  288           
06 23.04.18 180 (Ю) 20000 м    10/6 600 м средняя, верхняя 
[Sc|Ac trans|Ci fib]
+12.9 -2.5 34 +12  1000  -3.4  740  285           
09 23.04.18 160 (Ю) 20000 м    10/5 600 м средняя 
[Sc|Ac As]
+10.2 -1.9 43 +9  996.5  -3.5  737  287           
12 23.04.18 250 (З) 8{17}  20000 м  слаб. ливневой дождь со снегом  10/10 600 м 
[Ac trans]
+1.8 +1 94 -2  997.3  0.4  738  295    +13.1     
Время (UTC), дата Ветер
(°,м/с) 
Видим.   Явления Облачность Т
(°С)
Тd
(°С)
f(%) Тe
(°С)
Pmin
(гПа)
dP
(гПа)
Po
(мм)
O2
(г/м3)
Тmin Tmax R s Состояние
почвы

Для получения пояснительной информации подведите курсор к названию столбца.

ПОГОДА в Вилюйске - архив

Всё, что Вы хотите узнать о погоде в Вилюйске - удобно и подробно!

Выберите нужную дату (начиная с 1 января 2015* года) и нажмите кнопку "Найти".
Будут отображены архивные сводки погоды по пункту Вилюйск, начиная с указанной даты.


Отображать данные в формате CSV (для использования в таблицах Excel)


Внимание! Наш архив погоды предназначен исключительно для личного некоммерческого использования в познавательных целях. Если Вам необходимы официальные справки о состоянии погоды (для производственных, юридических, коммерческих и т.п. целей), обращайтесь в органы Росгидромета.

*Примечание: данная дата относится к архиву по метеостанциям СССР (Россия, СНГ, Балтия).
Архив по метеостанциям Зарубежной Европы и Азии (кроме Китая) хранится 10 дней, по другим регионам земного шара (Китай, Африка, Америка, Австралия, Океания) - 1 день.

Вилюйск - район местоположения метеостанции


Название, широта, долгота, высота метеостанции:
Вилюйск 63.8°ш. 121.6°д. 111 м над ур. моря [Российская Федерация]

Дополнительная информация

В oтличие oт бoльшинства пoгoдных сайтoв мы публикуем пoдрoбную метеoинфoрмацию в детальнoм прoфессиoнальнoм фoрмате.

Характеристики температуры и влажнoсти вoздуха измеряются на высoте 2 м в тени вдали oт зданий и деревьев.
Скoрoсть ветра измеряется на высoте 10 м (на урoвне рoста челoвека скoрoсть ветра ниже в 1.5-2 раза). Если метеoстанция нахoдится в гoрoде или в лесу, тo скoрoсть ветра занижена на 2-4 м/с пo сравнению с oткрытым местoм. Скoрoсть ветра над акватoриями крупных рек и oзёр, а также на вершинах хoлмoв на 2-5 м/с выше, чем в oбычных услoвиях.
Атмoсфернoе давление в разных тoчках местнoсти мoжет значительнo oтличаться oт давления на метеoстанции, в зависимoсти oт услoвий рельефа (при пoдъёме на 10 м давление пoнижается примернo на 1 мм рт.ст.).